Theta_e
299 300 299 297 297 296 293 294 289 296 297 301 305 306 308 311 312 310 305 305 304 302 302 303 304 306 306 306 306 306 305 304 303 304 303 304 303 302 303 302 302 303 302 302
295 300 299 297 298 297 296 297 296 297 294 302 306 308 307 310 312 308 303 305 305 305 305 305 305 306 307 305 305 305 304 304 305 305 304 301 300 300 299 298 298 298 298 299
287 298 296 291 296 295 297 297 295 292 297 303 303 303 303 303 303 303 303 303 303 303 303 304 305 305 304 304 305 305 304 305 304 302 300 299 298 297 296 295 295 294 295 296
288 289 283 295 301 300 297 298 298 298 301 301 300 301 301 300 300 301 302 301 301 301 301 302 303 303 304 304 304 302 299 299 299 298 297 296 295 294 293 292 292 292 293 293
287 285 290 295 298 297 295 293 298 299 300 300 300 300 298 303 302 301 300 300 300 301 300 300 301 301 300 298 298 298 297 297 297 295 294 293 292 291 291 289 289 290 291 292
287 285 281 292 299 303 301 288 299 299 298 298 298 291 293 299 301 299 298 298 299 298 297 296 297 296 294 294 294 294 294 294 294 293 292 290 289 288 287 288 289 291 291 292
288 283 291 300 304 305 288 288 299 299 298 297 295 296 297 297 297 296 296 296 297 295 293 293 294 293 291 291 291 293 293 292 291 290 288 288 287 286 287 289 290 290 290 291
289 286 283 304 302 294 296 297 298 297 296 295 295 295 294 294 294 294 293 293 294 292 291 290 292 290 289 288 291 292 290 289 287 286 286 286 285 287 289 289 288 288 288 289
290 291 299 302 299 299 300 297 296 295 295 293 292 292 292 292 292 292 291 291 290 289 289 289 289 289 287 287 289 288 286 285 284 284 284 285 287 286 286 287 286 286 287 288
294 297 297 298 299 299 298 295 294 294 292 293 290 292 291 290 290 289 289 289 288 287 287 287 288 288 286 287 287 285 283 282 282 282 284 286 286 286 286 285 286 286 286 287
293 296 297 298 297 296 295 295 294 295 294 293 292 291 289 289 289 288 288 288 288 287 287 287 286 286 286 285 285 282 281 281 283 284 284 284 285 286 286 287 287 286 287 288
289 296 295 294 296 296 294 293 294 293 292 293 292 290 289 288 288 288 287 287 287 286 285 285 284 284 284 284 283 281 282 283 283 284 284 285 284 285 288 289 289 289 289 289
294 299 297 296 296 296 294 294 294 293 293 291 291 290 289 287 288 289 287 287 286 284 284 283 283 283 283 284 283 283 282 283 283 284 284 284 284 285 284 288 291 291 290 290
299 297 293 293 291 295 295 295 296 294 293 292 290 290 288 287 287 286 287 286 284 283 283 282 283 282 284 285 284 283 283 285 284 284 285 285 285 286 286 287 286 287 290 290
298 297 294 294 294 294 294 294 292 291 291 289 289 288 287 285 286 286 287 286 283 282 283 283 283 284 285 285 284 284 284 284 285 285 285 286 286 285 286 286 286 286 287 288
296 294 294 293 293 293 293 292 291 290 290 288 287 287 286 287 285 285 284 283 280 282 283 283 283 284 285 285 285 284 284 285 285 285 284 284 284 284 284 285 285 285 285 286
292 290 291 291 292 292 291 292 292 291 289 288 287 286 286 286 285 283 283 282 282 281 283 283 283 285 286 285 285 284 284 285 284 284 284 284 283 283 283 283 283 283 284 286
295 293 293 293 292 292 292 292 292 291 289 289 288 286 285 285 282 284 281 281 283 280 282 284 285 285 285 286 286 286 285 285 284 284 284 284 283 284 283 282 282 282 283 285
294 293 294 294 294 292 291 291 291 291 290 288 287 285 284 285 282 281 282 282 282 281 283 284 287 285 285 286 287 287 286 286 285 285 284 284 283 284 283 283 282 282 282 283
294 295 295 294 295 293 291 292 292 290 289 288 286 285 283 283 286 282 282 278 281 283 283 284 285 284 285 286 287 287 285 285 285 285 285 284 283 283 283 283 283 282 282 282
293 294 294 294 293 294 292 292 291 290 290 289 286 285 283 282 282 283 278 280 281 282 283 284 284 284 285 285 286 287 285 284 284 283 283 283 283 283 283 283 283 283 282 282
293 293 293 293 292 291 291 291 291 291 289 289 288 287 284 281 281 277 277 280 278 280 283 283 283 283 284 284 285 286 283 283 283 282 282 282 282 282 282 282 282 283 283 282
293 293 293 292 291 290 291 291 291 291 290 289 288 286 282 277 278 275 276 281 278 281 280 283 283 283 283 284 283 283 284 283 282 282 282 281 281 281 281 281 282 282 282 282
292 292 292 292 292 291 289 290 290 290 290 290 288 287 285 280 280 279 284 282 282 281 282 282 283 282 283 283 282 282 283 281 281 282 281 281 281 281 281 281 281 282 282 282
293 293 291 291 289 289 289 289 289 289 289 288 288 288 288 285 280 281 281 281 282 281 281 282 282 282 283 282 282 282 282 281 280 281 280 280 279 280 280 281 281 281 282 282
291 291 291 292 290 289 288 287 286 287 287 288 288 287 287 287 286 284 282 282 280 281 280 280 280 281 282 281 282 281 282 281 281 280 279 279 279 279 280 280 281 281 281 282
292 291 290 289 289 290 288 287 286 287 288 287 287 289 288 288 287 285 283 280 279 278 278 280 280 280 280 279 280 280 280 280 281 280 280 279 279 279 279 280 280 281 281 281
Wind_Speed
9 9 3 2 5 5 3 7 5 7 13 10 9 9 10 3 11 17 6 10 6 6 7 5 5 5 5 5 4 3 4 3 1 1 2 3 5 6 6 6 5 5 6 7
7 7 7 3 4 4 4 8 7 8 4 4 5 11 10 5 5 15 10 14 11 8 7 6 5 5 4 3 2 1 2 3 3 5 6 7 6 6 6 5 5 5 6 7
2 2 4 4 4 3 4 2 9 6 8 12 9 9 9 9 11 11 11 8 8 7 5 4 3 4 4 3 1 2 4 6 8 8 7 6 6 6 7 6 6 6 7 8
4 2 5 6 3 7 15 14 10 19 19 17 14 12 8 5 9 9 8 7 5 3 3 6 5 6 5 7 8 10 11 10 9 9 8 7 7 7 7 5 7 7 11 10
5 3 2 2 3 6 17 9 10 18 19 19 16 18 12 7 7 6 5 4 3 8 9 11 12 9 11 11 10 10 10 9 9 9 9 10 10 8 7 6 10 11 10 12
3 6 4 5 5 12 12 7 6 13 10 6 3 10 1 2 8 11 13 12 12 12 11 14 11 10 12 10 10 10 9 9 8 8 9 9 6 9 6 9 11 9 11 11
4 3 2 2 5 0 8 8 5 12 8 10 13 5 4 10 12 13 12 14 10 12 12 9 8 8 9 7 8 6 7 8 8 7 7 10 10 9 9 10 10 10 11 11
4 3 3 3 5 8 9 5 10 9 9 14 12 11 12 13 13 12 12 13 11 9 8 7 7 7 6 5 5 5 7 8 7 8 9 9 10 10 10 10 10 10 11 11
4 4 3 11 18 11 13 14 8 12 9 13 12 12 11 10 10 10 9 8 7 6 5 5 6 5 7 6 6 7 7 8 9 10 9 8 9 10 9 8 8 9 8 9
7 6 14 16 15 14 15 14 11 12 12 14 13 11 11 10 8 8 8 8 6 7 8 7 7 8 5 8 8 9 10 11 9 8 10 9 8 7 7 7 8 8 8 9
14 12 16 13 13 13 14 15 16 14 13 13 15 11 10 9 8 8 8 8 8 9 9 9 10 9 8 9 8 10 10 9 9 8 9 9 8 8 7 9 9 9 9 9
6 6 13 7 7 11 14 12 12 16 15 12 14 11 10 8 6 7 8 8 8 9 10 10 10 11 11 10 9 10 11 8 8 8 8 8 8 10 11 15 18 18 20 16
8 13 16 13 10 11 15 13 13 14 13 14 10 11 10 7 8 10 8 8 10 9 7 9 10 10 10 11 10 10 9 10 8 9 8 8 8 8 10 10 14 15 14 14
20 22 12 9 8 13 15 14 17 15 13 12 11 10 9 8 7 7 8 9 8 8 7 9 10 11 11 10 10 10 10 16 7 7 7 8 8 8 8 10 12 11 9 14
11 12 16 11 14 12 12 13 13 12 11 11 10 10 8 7 7 7 8 8 5 6 8 11 11 11 11 10 10 10 8 7 7 7 7 9 7 7 7 8 8 9 10 11
15 16 14 15 13 12 13 12 13 11 11 9 10 9 7 7 6 5 5 5 6 8 10 9 10 11 11 11 9 7 8 15 11 7 7 7 7 7 7 7 8 8 8 9
17 11 14 12 12 10 11 9 9 11 10 10 9 7 6 8 6 4 5 6 5 6 7 9 10 11 11 9 9 7 6 7 9 6 7 7 7 8 8 8 8 8 8 9
13 11 11 14 13 13 11 10 11 11 10 10 9 7 6 5 4 4 4 6 7 6 8 11 10 11 10 10 10 7 6 6 7 7 7 8 8 7 8 8 8 9 9 10
17 15 13 13 12 13 11 9 10 12 11 10 9 6 4 5 4 5 5 6 9 9 10 11 16 12 10 13 14 7 6 7 7 7 7 9 8 8 8 8 9 9 9 9
14 14 13 13 13 12 10 9 11 10 10 10 8 6 5 4 3 4 5 3 5 5 7 9 10 9 10 11 13 6 8 9 10 9 8 8 9 9 9 11 9 9 9 9
15 14 13 12 11 10 10 9 10 9 9 9 7 5 4 3 4 3 4 5 7 6 7 12 9 8 7 9 9 6 9 9 9 10 10 10 10 10 10 10 10 9 9 9
12 11 12 12 11 9 8 8 9 9 8 8 7 6 4 4 3 2 2 2 4 6 6 6 6 10 8 10 8 8 10 9 8 9 9 10 10 11 11 11 11 11 10 10
11 12 12 11 11 9 8 8 9 10 9 8 7 6 4 3 2 2 2 4 2 5 4 5 9 11 10 8 8 9 8 10 9 9 9 10 10 10 11 11 11 10 11 10
11 10 9 9 9 8 7 7 7 7 8 7 7 7 6 3 1 1 2 2 5 4 4 6 8 9 8 6 7 8 8 10 10 9 9 13 10 10 11 11 11 11 11 11
11 9 8 8 8 6 7 6 6 6 7 6 6 5 6 3 3 3 0 0 4 4 4 6 8 8 6 7 7 8 7 8 8 9 9 9 10 11 11 12 12 12 11 11
8 7 7 10 8 5 5 5 5 5 6 6 4 4 4 3 3 2 1 2 2 3 3 4 4 5 6 6 7 7 7 8 8 9 9 9 10 11 11 12 12 12 12 12
5 6 5 5 4 7 5 6 6 5 5 6 6 6 5 4 4 4 3 1 2 2 2 3 4 5 5 6 7 7 7 7 10 8 8 9 10 9 11 11 11 11 12 12
Wind_Direction
138 103 42 88 57 7 110 164 135 183 179 186 164 139 108 60 321 320 48 127 136 96 90 92 94 97 93 87 96 112 92 74 37 278 288 319 13 39 49 49 27 10 1 352
30 62 46 306 38 37 117 107 99 144 89 137 141 120 101 94 173 272 62 72 77 75 71 69 77 88 99 104 105 94 48 358 330 348 7 43 39 32 23 9 352 341 330 319
56 25 55 304 212 51 314 84 139 165 157 129 113 107 120 169 144 99 81 71 65 59 68 91 125 155 165 196 201 50 19 8 26 39 41 24 10 6 357 343 325 317 306 308
134 72 142 246 150 77 74 35 74 90 115 114 110 109 125 111 96 89 89 84 77 61 350 349 339 351 11 24 32 42 45 37 29 24 14 4 357 348 330 317 312 314 309 307
127 120 227 78 32 129 108 34 13 104 116 120 117 93 56 54 72 90 88 63 36 43 50 39 27 31 59 45 36 39 35 24 20 12 355 345 336 326 317 317 309 302 298 297
112 143 184 227 88 116 94 57 13 88 92 106 149 83 223 34 52 51 62 57 58 56 51 44 24 31 46 35 34 26 13 4 357 350 338 324 316 311 288 292 296 304 301 290
108 102 294 221 304 156 90 183 132 102 103 91 89 95 92 74 57 61 58 51 64 58 57 46 33 38 41 29 21 356 350 341 336 332 327 318 308 306 302 301 295 296 297 299
113 116 221 185 23 94 145 113 110 87 91 89 90 84 73 71 66 57 51 46 47 55 54 37 35 40 26 5 326 337 335 326 326 319 313 310 302 306 303 304 303 304 304 303
137 191 325 75 108 112 115 108 100 97 97 98 90 82 78 75 67 61 55 46 40 51 45 34 19 31 4 334 347 341 332 325 316 312 307 299 310 312 306 305 304 303 302 302
82 38 87 97 90 92 96 100 99 94 94 86 87 87 77 69 59 56 46 40 32 27 20 16 17 11 3 350 341 338 327 319 314 310 315 315 305 300 301 303 300 298 300 299
96 107 88 66 87 99 88 90 83 74 80 89 90 78 82 68 55 48 39 26 24 15 6 3 357 352 346 341 340 329 321 313 310 313 310 308 302 301 297 286 282 292 292 290
170 173 111 118 110 98 87 97 98 94 80 72 86 87 77 63 53 53 36 23 19 12 2 357 346 337 336 334 330 318 315 313 312 310 306 305 305 306 291 280 285 279 272 269
133 115 108 116 103 92 100 97 94 94 95 91 77 85 74 65 55 42 27 28 16 359 355 340 332 326 330 326 317 312 311 309 305 309 305 307 306 304 306 310 293 284 283 294
114 112 91 103 111 98 100 101 93 90 89 88 89 74 73 69 54 38 34 32 3 345 341 336 329 336 326 320 319 314 309 310 306 302 303 306 307 309 308 318 330 331 321 324
96 96 114 113 94 100 100 101 92 96 96 84 78 79 74 65 49 43 47 11 351 334 348 350 341 334 330 325 319 317 316 314 315 310 307 313 312 313 318 314 319 317 321 329
116 112 111 107 109 106 101 96 99 101 99 97 91 83 77 70 54 43 43 357 6 353 350 340 335 327 331 331 324 327 326 327 328 327 329 329 328 327 326 329 328 324 324 327
118 116 116 114 117 112 109 105 101 110 110 103 100 94 78 71 57 37 21 355 356 346 336 336 327 329 332 327 327 335 332 337 337 338 337 340 340 340 337 335 332 329 325 323
127 121 123 125 125 118 105 99 105 117 117 114 107 99 86 75 59 14 42 350 357 341 345 346 333 341 338 338 343 330 326 336 343 348 344 347 342 341 341 340 337 332 330 329
104 109 106 106 110 106 109 104 108 120 120 114 106 99 93 84 74 24 4 13 8 0 352 342 343 343 341 341 347 331 329 335 345 353 351 347 345 346 344 344 342 336 334 334
98 99 104 104 105 118 116 110 109 112 120 115 113 105 81 43 63 40 5 341 325 331 334 337 349 347 339 336 339 1 356 0 359 354 353 355 355 351 349 347 343 345 342 338
112 108 104 105 110 114 115 117 115 112 117 126 122 117 96 60 51 62 12 12 333 333 355 357 354 351 344 344 352 356 6 2 4 0 359 357 350 353 352 351 348 348 346 343
128 125 123 120 119 119 120 121 121 126 127 127 133 126 103 58 35 349 245 1 312 326 359 354 353 351 354 356 359 5 13 5 8 5 2 358 356 353 351 350 350 348 347 345
133 134 131 132 135 138 135 137 143 148 150 149 146 146 143 188 160 83 346 327 346 357 354 349 349 357 2 12 8 2 10 7 6 6 360 355 354 352 350 348 345 345 346 345
129 132 135 136 132 131 145 176 159 158 154 151 153 159 158 152 353 242 293 21 8 3 356 358 359 1 9 17 17 7 9 11 1 1 2 1 354 352 351 348 347 345 345 346
142 142 139 143 147 170 166 158 141 144 136 144 156 162 169 189 139 228 237 32 34 12 350 348 358 3 13 12 14 8 3 10 4 357 360 358 352 350 349 348 348 346 344 346
141 151 163 169 171 150 140 129 137 147 138 158 168 169 158 153 161 140 75 75 48 14 5 351 353 354 11 8 7 6 4 7 6 1 3 359 353 349 347 346 346 347 347 345
130 128 122 103 118 136 148 149 133 155 156 156 170 181 176 172 163 146 141 62 29 12 3 1 2 6 7 9 7 360 358 3 1 357 357 2 359 347 344 343 343 343 346 347